Tracking 19792 objects as of 17-Jul-2019
HD Live streaming from Space Station
objects crossing your sky now

FENGYUN 1C DEB

Track FENGYUN 1C DEB now!
10-day predictions


NORAD ID: 30650
Int'l Code: 1999-025APH
Perigee: 833.0 km
Apogee: 949.2 km
Inclination: 99.2 °
Period: 102.6 minutes
Semi major axis: 7262 km
RCS: 0.0287 m2 (small)
Launch date: May 10, 1999
Source: People's Republic of China (PRC)
Launch site: Taiyaun Space Center, China (TSC)

Note: This is SATELLITE DEBRIS
aabbcc
Your satellite tracking list
Your tracking list is empty




NASA's NSSDC Master Catalog

Two Line Element Set (TLE):
1 30650U 99025APH 19196.85997130 +.00000235 +00000-0 +17609-3 0  9993
2 30650 099.1649 161.5312 0080035 203.0152 186.4148 14.02843181633828
Source of the keplerian elements: AFSPC